User: anonymous   Login
Location: Unspecified
(0.0000°N, 0.0000°E)
Time: 11:39:40
(UTC+02:00)
Language:

Cosmos 1125 Rocket - Orbit

View from above orbital plane
View from above orbital plane
View from above satellite
View from above satellite

Ground track
Ground track

The orbit data is extracted from the following two-line orbital elements,

1 11511U 79078B   15153.40964947  .00000080  00000-0  36144-4 0  9998
2 11511 074.0374 245.8975 0016613 309.9396 050.0297 14.36624139871516
Epoch (UTC): 02 June 2015 09:49:53
Eccentricity: 0.0016613
inclination: 74.0374°
perigee height: 758 km
apogee height: 781 km
right ascension of ascending node: 245.8975°
argument of perigee: 309.9396°
revolutions per day: 14.36624139
mean anomaly at epoch: 50.0297°
orbit number at epoch: 87151

The dashed part of the orbit path shows where the satellite is in the earth's shadow,  

DLR